{"data":{"norad_id":64377,"intl_designator":"2025-127H","name":"STARLINK-11742 [DTC]","alt_names":[],"object_type":"PAYLOAD","status":"ACTIVE","operator":null,"country":"US","launch_date":"2025-06-13","launch_site_code":"AFETR","launch_vehicle":null,"mission":null,"orbit_class":"UNKNOWN","rcs_meters":null,"size_class":null,"mass_kg":null,"dimensions":null,"purposes":["comms"],"wikipedia_slug":null,"has_3d_model":false,"image_url":null,"decayed_at":null,"tle_current":{"epoch":"2026-09-20T00:00:02.999808Z","epoch_age_seconds":178340,"freshness":"STALE","line1":"1 64377U 25127H   26263.00003472 -.00176292  00000+0 -13947-2 0  9993","line2":"2 64377  43.0007 353.5033 0001569 262.5093 327.8487 15.70923911  5892","mean_motion":15.70923911,"eccentricity":0.0001569,"inclination_deg":43.0007,"raan_deg":353.5033,"arg_perigee_deg":262.5093,"mean_anomaly_deg":327.8487,"bstar":-0.0013947,"rev_number":589,"period_min":91.665801883641,"perigee_km":355.19861275973,"apogee_km":357.31186504429,"semimajor_km":6734.392238902,"source":"CELESTRAK","updated_at":"2026-09-21T09:00:35.323063Z"}}}